Flag for U.S.A. Weather past 2 weeks in Berkeley, California, U.S.A.

Now
54 °F

Partly sunny.


Feels Like: 52 °F
Forecast: 52 / 66 °F
Wind: 8 mph from West

Location: Metro Oakland International Airport

Current Time: Apr 28, 2015 at 9:13:14 AM

Latest Report: Apr 28, 2015 at 8:53 AM


Visibility: 10 mi

Pressure: 30.06 "Hg

Humidity: 83%

Dew point: 49 °F

Location of BerkeleyLocation

Historic Weather in Berkeley — Graph

°F

Berkeley temperature yesterday

Maximum temperature yesterday: 76 °F (at 12:53 PM)
Minimum temperature yesterday: 51 °F (at 3:53 AM)
Average temperature yesterday: 60 °F

Past Weeks' High & Low Weather Summary

 TemperatureHumidityPressure
High81 °F (Apr 16, 2:53 PM)93% (Apr 19, 12:53 AM)30.34 "Hg (Apr 19, 12:53 AM)
Low47 °F (Apr 15, 5:53 AM)12% (Apr 16, 2:53 PM)29.85 "Hg (Apr 20, 6:53 PM)
Average57 °F68%30.00 "Hg
* Reported Apr 13 7:53 AM — Apr 28 7:53 AM, Berkeley, Weather by CustomWeather, © 2015

Note: Actual official high and low records may vary slightly from our data, if they occured in-between our weather recording intervals... More about our weather records

Advertising

Berkeley weather history for previous 24 hours

 ConditionsComfort  
Time TempWeatherWind HumidityBarometerVisibility
7:53 AM
Tue, Apr 28
53 °FMore clouds than sun.9 mph86%30.05 "Hg10 mi
6:53 AM53 °FLow clouds.7 mph86%30.04 "Hg10 mi
5:53 AM52 °FLow clouds.10 mph89%30.03 "Hg10 mi
4:53 AM53 °FLow clouds.3 mph83%30.03 "Hg10 mi
3:53 AM52 °FLow clouds.No wind86%30.04 "Hg10 mi
2:53 AM52 °FLow clouds.5 mph89%30.04 "Hg10 mi
1:53 AM53 °FLow clouds.3 mph89%30.04 "Hg10 mi
12:53 AM53 °FLow clouds.12 mph86%30.05 "Hg10 mi
11:53 PM
Mon, Apr 27
53 °FLow clouds.13 mph86%30.03 "Hg10 mi
10:53 PM53 °FPassing clouds.14 mph89%30.03 "Hg10 mi
9:53 PM53 °FPassing clouds.18 mph89%30.02 "Hg10 mi
8:53 PM54 °FScattered clouds.14 mph83%30.00 "Hg10 mi
7:53 PM56 °FScattered clouds.15 mph81%29.97 "Hg10 mi
6:53 PM61 °FScattered clouds.16 mph70%29.95 "Hg10 mi
5:53 PM69 °FScattered clouds.15 mph51%29.94 "Hg10 mi
4:53 PM69 °FScattered clouds.9 mph55%29.95 "Hg10 mi
3:53 PM70 °FPassing clouds.12 mph55%29.96 "Hg10 mi
2:53 PM73 °FPassing clouds.13 mph53%29.96 "Hg10 mi
1:53 PM76 °FPassing clouds.12 mph40%29.97 "Hg10 mi
12:53 PM76 °FPassing clouds.10 mph37%29.98 "Hg10 mi
11:53 AM72 °FPassing clouds.8 mph49%30.01 "Hg10 mi
10:53 AM66 °FPassing clouds.5 mph61%30.02 "Hg10 mi
9:53 AM63 °FPassing clouds.3 mph70%30.03 "Hg10 mi
Weather by CustomWeather, © 2015

See weather overviewHow to use our weather pages